GW2233 Weather Reports


time (UTC)temp
C
wind
direction
speed
KPH
gust
KPH
rain 1hr
cm
rain 24hr
cm
rain mn
cm
humidity
%
barometer
mb
20260505070404 17 79 4.8 12.9 0.00 0.00 0.00 68 1010.5
20260505070304 17 73 3.2 11.3 0.00 0.00 0.00 68 1010.3
20260505070204 17 66 3.2 9.7 0.00 0.00 0.00 69 1010.4
20260505070104 17 62 3.2 6.4 0.00 0.00 0.00 71 1010.5
20260505070003 17 58 3.2 6.4 0.00 0.00 0.00 70 1010.7
20260505065903 17 51 3.2 6.4 0.00 0.00 0.00 70 1010.6
20260505065803 17 43 3.2 6.4 0.00 0.00 0.00 71 1010.5
20260505065705 17 37 1.6 6.4 0.00 0.00 0.00 70 1010.6
20260505065603 17 31 1.6 6.4 0.00 0.00 0.00 70 1010.5
20260505065504 17 23 1.6 6.4 0.00 0.00 0.00 69 1010.5
20260505065403 17 18 1.6 6.4 0.00 0.00 0.00 69 1010.5
20260505065304 17 18 1.6 6.4 0.00 0.00 0.00 69 1010.6
20260505065217 17 18 1.6 6.4 0.00 0.00 0.00 69 1010.7
20260505065204 17 18 1.6 6.4 0.00 0.00 0.00 69 1010.7
20260505065103 17 19 1.6 4.8 0.00 0.00 0.00 69 1010.6
20260505064917 17 25 1.6 4.8 0.00 0.00 0.00 72 1010.4
20260505064904 17 28 1.6 4.8 0.00 0.00 0.00 72 1010.4
20260505064804 16 40 1.6 4.8 0.00 0.00 0.00 72 1010.5
20260505064604 16 53 1.6 4.8 0.00 0.00 0.00 70 1010.6
20260505064503 16 70 1.6 6.4 0.00 0.00 0.00 70 1010.5
20260505064403 16 85 1.6 6.4 0.00 0.00 0.00 70 1010.7
20260505064304 16 93 1.6 6.4 0.00 0.00 0.00 70 1010.7
20260505064203 16 106 1.6 9.7 0.00 0.00 0.00 70 1010.7
20260505064103 16 109 1.6 9.7 0.00 0.00 0.00 70 1010.8
20260505064003 16 110 1.6 9.7 0.00 0.00 0.00 70 1010.7
20260505063904 16 106 1.6 9.7 0.00 0.00 0.00 71 1010.8
20260505063803 16 96 1.6 9.7 0.00 0.00 0.00 73 1010.8
20260505063704 16 92 3.2 9.7 0.00 0.00 0.00 71 1010.9
20260505063605 16 91 3.2 9.7 0.00 0.00 0.00 71 1010.9
20260505063517 16 84 3.2 9.7 0.00 0.00 0.00 71 1010.8
20260505063508 16 83 3.2 9.7 0.00 0.00 0.00 71 1010.8
20260505063403 16 73 3.2 9.7 0.00 0.00 0.00 73 1011.0
20260505063203 16 57 1.6 9.7 0.00 0.00 0.00 73 1010.8
20260505063104 16 34 1.6 6.4 0.00 0.00 0.00 73 1010.9
20260505063003 16 30 1.6 6.4 0.00 0.00 0.00 74 1010.9
20260505062904 16 39 1.6 6.4 0.00 0.00 0.00 74 1010.9
20260505062803 16 48 1.6 6.4 0.00 0.00 0.00 73 1010.8
20260505062703 16 49 1.6 6.4 0.00 0.00 0.00 73 1011.0
20260505062604 16 47 1.6 6.4 0.00 0.00 0.00 74 1011.0
20260505062519 16 47 1.6 6.4 0.00 0.00 0.00 74 1010.9
20260505062503 16 47 1.6 6.4 0.00 0.00 0.00 74 1010.9
20260505062403 15 47 1.6 6.4 0.00 0.00 0.00 73 1010.9
20260505062320 15 47 1.6 6.4 0.00 0.00 0.00 73 1011.0
20260505062205 15 50 3.2 6.4 0.00 0.00 0.00 73 1010.8
20260505062003 15 61 3.2 9.7 0.00 0.00 0.00 75 1010.8
20260505061904 15 58 3.2 9.7 0.00 0.00 0.00 75 1011.1
20260505061804 15 56 3.2 9.7 0.00 0.00 0.00 74 1010.9
20260505061703 15 58 3.2 9.7 0.00 0.00 0.00 76 1011.1
20260505061603 15 57 3.2 9.7 0.00 0.00 0.00 74 1010.8
20260505061517 15 57 3.2 9.7 0.00 0.00 0.00 74 1011.0
20260505061504 15 58 3.2 9.7 0.00 0.00 0.00 74 1011.0
20260505061419 15 62 3.2 9.7 0.00 0.00 0.00 74 1011.0
20260505061404 15 64 3.2 9.7 0.00 0.00 0.00 74 1011.0
20260505061119 15 70 4.8 9.7 0.00 0.00 0.00 75 1010.7
20260505061103 15 70 4.8 9.7 0.00 0.00 0.00 75 1010.7
20260505061004 15 76 3.2 9.7 0.00 0.00 0.00 75 1010.9
20260505060803 15 77 3.2 11.3 0.00 0.00 0.00 77 1010.8
20260505060704 15 77 3.2 11.3 0.00 0.00 0.00 76 1010.8
20260505060616 15 75 3.2 11.3 0.00 0.00 0.00 77 1010.9
20260505060604 15 75 3.2 11.3 0.00 0.00 0.00 77 1010.9
20260505060503 15 78 4.8 11.3 0.00 0.00 0.00 77 1010.9
20260505060303 15 76 3.2 11.3 0.00 0.00 0.00 77 1011.0
20260505060203 15 72 3.2 11.3 0.00 0.00 0.00 77 1010.9
20260505060117 15 72 3.2 11.3 0.00 0.00 0.00 78 1010.8
20260505060104 15 71 3.2 11.3 0.00 0.00 0.00 78 1010.8
20260505060003 15 66 3.2 11.3 0.00 0.00 0.00 81 1010.8
20260505055918 14 64 3.2 11.3 0.00 0.00 0.00 80 1010.9
20260505055817 14 65 3.2 11.3 0.00 0.00 0.00 80 1010.5
20260505055803 14 64 3.2 11.3 0.00 0.00 0.00 80 1010.5
20260505055503 14 67 3.2 6.4 0.00 0.00 0.00 82 1010.8
20260505055419 14 64 3.2 6.4 0.00 0.00 0.00 82 1010.8
20260505055403 14 63 3.2 6.4 0.00 0.00 0.00 82 1010.8
20260505055305 14 58 3.2 6.4 0.00 0.00 0.00 81 1010.8
20260505055104 13 52 3.2 6.4 0.00 0.00 0.00 82 1010.7
20260505055004 13 51 3.2 6.4 0.00 0.00 0.00 82 1010.8
20260505054904 13 52 1.6 6.4 0.00 0.00 0.00 84 1010.7
20260505054804 13 47 1.6 6.4 0.00 0.00 0.00 83 1010.8
20260505054703 13 31 1.6 6.4 0.00 0.00 0.00 83 1010.9
20260505054603 13 13 1.6 4.8 0.00 0.00 0.00 83 1010.9
20260505054503 13 3 1.6 4.8 0.00 0.00 0.00 84 1010.9
20260505054404 13 2 1.6 4.8 0.00 0.00 0.00 84 1010.8
20260505054303 13 2 1.6 4.8 0.00 0.00 0.00 84 1011.0
20260505054203 13 2 1.6 4.8 0.00 0.00 0.00 85 1010.7
20260505054104 13 2 1.6 4.8 0.00 0.00 0.00 85 1010.9
20260505054004 12 2 1.6 4.8 0.00 0.00 0.00 86 1010.8
20260505053803 12 2 1.6 4.8 0.00 0.00 0.00 86 1010.8
20260505053704 12 2 1.6 4.8 0.00 0.00 0.00 87 1010.8
20260505053603 12 2 1.6 4.8 0.00 0.00 0.00 87 1010.6
20260505053503 12 2 1.6 4.8 0.00 0.00 0.00 86 1010.8
20260505053404 12 2 1.6 3.2 0.00 0.00 0.00 87 1010.8
20260505053303 12 2 1.6 3.2 0.00 0.00 0.00 87 1010.9
20260505053216 12 2 1.6 3.2 0.00 0.00 0.00 87 1010.9
20260505053203 12 2 1.6 3.2 0.00 0.00 0.00 87 1010.9
20260505053103 12 2 1.6 3.2 0.00 0.00 0.00 88 1010.7
20260505052916 12 2 1.6 3.2 0.00 0.00 0.00 89 1010.9
20260505052904 12 2 1.6 3.2 0.00 0.00 0.00 89 1010.9
20260505052804 12 2 1.6 3.2 0.00 0.00 0.00 89 1010.7
20260505052503 11 2 1.6 3.2 0.00 0.00 0.00 91 1010.7
20260505052404 11 2 0.0 3.2 0.00 0.00 0.00 91 1010.7
20260505052304 11 2 0.0 3.2 0.00 0.00 0.00 91 1010.9
20260505052204 11 3 0.0 3.2 0.00 0.00 0.00 92 1010.7
20260505052103 11 3 0.0 1.6 0.00 0.00 0.00 92 1010.8
20260505052004 11 3 0.0 1.6 0.00 0.00 0.00 93 1010.8
20260505051903 11 3 0.0 1.6 0.00 0.00 0.00 93 1010.8
20260505051804 11 3 0.0 1.6 0.00 0.00 0.00 93 1010.8
20260505051719 11 0 0.0 1.6 0.00 0.00 0.00 93 1010.9
20260505051704 11 0 0.0 1.6 0.00 0.00 0.00 93 1010.9
20260505051604 11 0 0.0 1.6 0.00 0.00 0.00 94 1010.8
20260505051404 11 0 0.0 1.6 0.00 0.00 0.00 94 1010.8
20260505051304 10 0 0.0 1.6 0.00 0.00 0.00 94 1010.7
20260505051204 10 0 0.0 0.0 0.00 0.00 0.00 94 1010.7
20260505051103 10 0 0.0 0.0 0.00 0.00 0.00 94 1010.7
20260505051003 10 0 0.0 0.0 0.00 0.00 0.00 94 1010.7
20260505050903 10 0 0.0 0.0 0.00 0.00 0.00 94 1010.7
20260505050803 10 0 0.0 0.0 0.00 0.00 0.00 94 1010.7
20260505050704 10 0 0.0 0.0 0.00 0.00 0.00 94 1010.7
20260505050604 10 0 0.0 0.0 0.00 0.00 0.00 95 1010.6
20260505050504 10 0 0.0 0.0 0.00 0.00 0.00 95 1010.8
20260505050404 10 0 0.0 0.0 0.00 0.00 0.00 95 1010.6
20260505050203 10 0 0.0 0.0 0.00 0.00 0.00 95 1010.7
20260505050103 10 0 0.0 0.0 0.00 0.00 0.00 95 1010.6
20260505041704 8 0 0.0 0.0 0.00 0.00 0.00 97 1010.6
20260505041504 8 0 0.0 1.6 0.00 0.00 0.00 97 1010.6
20260505041404 8 0 0.0 1.6 0.00 0.00 0.00 97 1010.6
20260505041303 8 0 0.0 1.6 0.00 0.00 0.00 97 1010.5
20260505041203 8 0 0.0 1.6 0.00 0.00 0.00 97 1010.6
20260505041103 8 0 0.0 1.6 0.00 0.00 0.00 97 1010.5
20260505041003 8 0 0.0 1.6 0.00 0.00 0.00 97 1010.7
20260505040804 8 0 0.0 1.6 0.00 0.00 0.00 97 1010.5
20260505040704 8 0 0.0 1.6 0.00 0.00 0.00 97 1010.6
20260505040603 8 0 0.0 1.6 0.00 0.00 0.00 97 1010.6
20260505040503 8 0 0.0 1.6 0.00 0.00 0.00 97 1010.5
20260505040303 8 0 0.0 0.0 0.00 0.00 0.00 97 1010.7
20260505040204 8 0 0.0 0.0 0.00 0.00 0.00 97 1010.8
20260505040116 7 0 0.0 0.0 0.00 0.00 0.00 97 1010.6
20260505040104 7 0 0.0 0.0 0.00 0.00 0.00 97 1010.6
20260505040004 7 0 0.0 0.0 0.00 0.00 0.00 97 1010.7
20260505035804 7 0 0.0 0.0 0.00 0.00 0.00 97 1010.5
20260505035704 7 0 0.0 1.6 0.00 0.00 0.00 97 1010.6
20260505035603 7 0 0.0 1.6 0.00 0.00 0.00 97 1010.6
20260505035504 7 124 0.0 1.6 0.00 0.00 0.00 97 1010.5
20260505035404 7 124 0.0 3.2 0.00 0.00 0.00 97 1010.5
20260505035304 7 124 0.0 3.2 0.00 0.00 0.00 97 1010.6
20260505035204 7 124 0.0 3.2 0.00 0.00 0.00 97 1010.6
20260505034904 7 124 1.6 3.2 0.00 0.00 0.00 96 1010.6
20260505034804 7 124 1.6 3.2 0.00 0.00 0.00 96 1010.8
20260505034703 7 124 1.6 3.2 0.00 0.00 0.00 96 1010.7
20260505034603 7 124 1.6 3.2 0.00 0.00 0.00 96 1010.7
20260505034503 7 124 1.6 3.2 0.00 0.00 0.00 96 1010.5
20260505034403 7 124 1.6 3.2 0.00 0.00 0.00 96 1010.6
20260505034303 7 124 1.6 3.2 0.00 0.00 0.00 96 1010.7
20260505034203 7 124 1.6 3.2 0.00 0.00 0.00 96 1010.7
20260505034103 7 124 1.6 3.2 0.00 0.00 0.00 97 1010.5
20260505034019 7 124 1.6 3.2 0.00 0.00 0.00 97 1010.5
20260505034003 7 124 1.6 3.2 0.00 0.00 0.00 97 1010.5
20260505033904 7 124 1.6 3.2 0.00 0.00 0.00 97 1010.8
20260505033820 7 124 1.6 3.2 0.00 0.00 0.00 97 1010.7
20260505033520 7 124 1.6 3.2 0.00 0.00 0.00 97 1010.8
20260505033504 8 124 1.6 3.2 0.00 0.00 0.00 97 1010.8
20260505033404 8 124 1.6 3.2 0.00 0.00 0.00 97 1010.8
20260505033317 8 124 1.6 3.2 0.00 0.00 0.00 97 1010.7
20260505033203 8 124 0.0 3.2 0.00 0.00 0.00 98 1010.8
20260505033003 8 124 0.0 1.6 0.00 0.00 0.00 98 1010.7
20260505032903 8 124 0.0 1.6 0.00 0.00 0.00 97 1010.7
20260505032804 8 124 0.0 1.6 0.00 0.00 0.00 97 1010.6
20260505032703 8 124 0.0 1.6 0.00 0.00 0.00 97 1010.5
20260505032603 8 124 0.0 1.6 0.00 0.00 0.00 97 1010.6
20260505032503 8 0 0.0 0.0 0.00 0.00 0.00 97 1010.6
20260505032404 8 0 0.0 0.0 0.00 0.00 0.00 97 1010.6
20260505032304 8 0 0.0 0.0 0.00 0.00 0.00 97 1010.6
20260505032204 8 0 0.0 0.0 0.00 0.00 0.00 97 1010.6
20260505032116 8 0 0.0 0.0 0.00 0.00 0.00 97 1010.7
20260505032004 8 0 0.0 0.0 0.00 0.00 0.00 97 1010.7
20260505031804 7 0 0.0 0.0 0.00 0.00 0.00 97 1010.8
20260505031703 7 0 0.0 0.0 0.00 0.00 0.00 97 1010.8
20260505031603 7 0 0.0 0.0 0.00 0.00 0.00 97 1010.9
20260505031503 7 0 0.0 0.0 0.00 0.00 0.00 97 1010.8
20260505031403 7 0 0.0 0.0 0.00 0.00 0.00 97 1010.7
20260505031303 7 0 0.0 0.0 0.00 0.00 0.00 97 1011.0
20260505031203 7 0 0.0 0.0 0.00 0.00 0.00 97 1010.9
20260505031104 7 0 0.0 0.0 0.00 0.00 0.00 97 1010.9
20260505031003 7 0 0.0 0.0 0.00 0.00 0.00 97 1010.9
20260505030903 7 0 0.0 0.0 0.00 0.00 0.00 97 1010.7
20260505030804 7 0 0.0 0.0 0.00 0.00 0.00 97 1010.9
20260505030704 7 0 0.0 0.0 0.00 0.00 0.00 97 1010.9
20260505030503 7 0 0.0 0.0 0.00 0.00 0.00 97 1010.8
20260505030403 7 0 0.0 0.0 0.00 0.00 0.00 97 1010.9
20260505030319 7 0 0.0 0.0 0.00 0.00 0.00 97 1010.9
20260505030303 7 0 0.0 0.0 0.00 0.00 0.00 97 1010.9
20260505030203 7 0 0.0 0.0 0.00 0.00 0.00 97 1010.9
20260505030003 7 0 0.0 0.0 0.00 0.00 0.00 97 1010.9
20260505025904 7 0 0.0 0.0 0.00 0.00 0.00 97 1010.9
20260505025704 7 0 0.0 0.0 0.00 0.00 0.00 97 1010.8
20260505025603 7 0 0.0 0.0 0.00 0.00 0.00 96 1010.8
20260505025503 7 0 0.0 0.0 0.00 0.00 0.00 96 1010.8
20260505025403 7 0 0.0 0.0 0.00 0.00 0.00 96 1010.8
20260505025204 7 0 0.0 0.0 0.00 0.00 0.00 96 1010.6
20260505025104 7 0 0.0 0.0 0.00 0.00 0.00 96 1010.8
20260505025004 7 0 0.0 0.0 0.00 0.00 0.00 96 1011.0
20260505024903 7 0 0.0 0.0 0.00 0.00 0.00 96 1010.8
20260505024804 7 0 0.0 0.0 0.00 0.00 0.00 96 1010.9
20260505024703 7 0 0.0 1.6 0.00 0.00 0.00 96 1010.8
20260505024604 7 0 0.0 1.6 0.00 0.00 0.00 96 1010.7
20260505024518 7 349 0.0 1.6 0.00 0.00 0.00 96 1010.8
20260505024403 7 349 0.0 1.6 0.00 0.00 0.00 96 1010.8
20260505024203 7 349 0.0 1.6 0.00 0.00 0.00 96 1010.8
20260505024104 7 349 0.0 1.6 0.00 0.00 0.00 96 1010.9
20260505024004 7 349 0.0 1.6 0.00 0.00 0.00 96 1010.8
20260505023903 7 349 0.0 1.6 0.00 0.00 0.00 96 1010.8
20260505023803 7 349 0.0 1.6 0.00 0.00 0.00 96 1010.8
20260505023703 7 349 0.0 1.6 0.00 0.00 0.00 96 1010.9
20260505023603 7 349 0.0 1.6 0.00 0.00 0.00 96 1010.9
20260505023504 7 349 0.0 1.6 0.00 0.00 0.00 96 1010.9
20260505023403 7 349 0.0 1.6 0.00 0.00 0.00 96 1011.1
20260505023321 7 349 0.0 1.6 0.00 0.00 0.00 96 1010.9
20260505023203 7 349 0.0 3.2 0.00 0.00 0.00 96 1010.8
20260505023004 7 349 0.0 3.2 0.00 0.00 0.00 96 1010.8
20260505022903 7 349 0.0 3.2 0.00 0.00 0.00 96 1010.8
20260505022804 7 349 1.6 3.2 0.00 0.00 0.00 96 1010.9
20260505022603 7 349 1.6 3.2 0.00 0.00 0.00 96 1010.9
20260505022503 7 349 1.6 3.2 0.00 0.00 0.00 96 1011.0
20260505022404 7 349 1.6 3.2 0.00 0.00 0.00 96 1010.8
20260505022304 7 349 1.6 3.2 0.00 0.00 0.00 96 1010.8
20260505022203 7 349 1.6 3.2 0.00 0.00 0.00 96 1010.8
20260505022103 8 351 1.6 3.2 0.00 0.00 0.00 96 1010.8
20260505022003 8 354 1.6 3.2 0.00 0.00 0.00 96 1010.9
20260505021904 8 354 1.6 3.2 0.00 0.00 0.00 96 1010.7
20260505021804 8 355 1.6 3.2 0.00 0.00 0.00 96 1010.9
20260505021703 8 355 1.6 3.2 0.00 0.00 0.00 96 1010.8
20260505021604 8 356 1.6 3.2 0.00 0.00 0.00 96 1010.9
20260505021403 8 1 0.0 3.2 0.00 0.00 0.00 96 1010.8
20260505021316 8 6 0.0 3.2 0.00 0.00 0.00 96 1010.8
20260505021303 8 8 0.0 3.2 0.00 0.00 0.00 96 1010.8
20260505021219 8 18 0.0 3.2 0.00 0.00 0.00 96 1010.8
20260505021204 8 23 0.0 1.6 0.00 0.00 0.00 96 1010.8
20260505020903 8 0 0.0 0.0 0.00 0.00 0.00 95 1010.7
20260505020803 8 0 0.0 0.0 0.00 0.00 0.00 95 1010.7
20260505020704 8 0 0.0 0.0 0.00 0.00 0.00 95 1010.6
20260505020603 8 0 0.0 0.0 0.00 0.00 0.00 95 1010.7
20260505020503 8 0 0.0 0.0 0.00 0.00 0.00 95 1010.7
20260505020403 8 0 0.0 0.0 0.00 0.00 0.00 95 1010.7
20260505020304 8 0 0.0 0.0 0.00 0.00 0.00 95 1010.6
20260505020203 8 0 0.0 0.0 0.00 0.00 0.00 95 1010.6
20260505020103 8 0 0.0 1.6 0.00 0.00 0.00 95 1010.7
20260505020004 8 0 0.0 1.6 0.00 0.00 0.00 95 1010.6
20260505015903 8 0 0.0 1.6 0.00 0.00 0.00 95 1010.5
20260505015804 8 0 0.0 1.6 0.00 0.00 0.00 95 1010.4
20260505015718 8 97 0.0 1.6 0.00 0.00 0.00 95 1010.5
20260505015703 8 92 0.0 1.6 0.00 0.00 0.00 95 1010.5
20260505015603 8 87 0.0 1.6 0.00 0.00 0.00 95 1010.5
20260505015404 8 87 0.0 1.6 0.00 0.00 0.00 95 1010.6
20260505015304 8 87 0.0 1.6 0.00 0.00 0.00 95 1010.4
20260505015204 8 87 0.0 1.6 0.00 0.00 0.00 95 1010.4
20260505015104 8 86 0.0 1.6 0.00 0.00 0.00 95 1010.4
20260505015003 8 83 0.0 1.6 0.00 0.00 0.00 95 1010.7
20260505014903 8 75 0.0 1.6 0.00 0.00 0.00 95 1010.5
20260505014803 8 50 0.0 1.6 0.00 0.00 0.00 96 1010.4
20260505014704 8 5 0.0 1.6 0.00 0.00 0.00 96 1010.4
20260505014604 8 0 0.0 0.0 0.00 0.00 0.00 95 1010.6
20260505014504 8 0 0.0 0.0 0.00 0.00 0.00 95 1010.5
20260505014420 8 0 0.0 0.0 0.00 0.00 0.00 95 1010.5
20260505014403 8 0 0.0 1.6 0.00 0.00 0.00 95 1010.5
20260505014303 8 0 0.0 1.6 0.00 0.00 0.00 95 1010.5
20260505014003 8 5 0.0 1.6 0.00 0.00 0.00 95 1010.5
20260505013903 8 5 0.0 1.6 0.00 0.00 0.00 95 1010.5
20260505013703 8 5 0.0 1.6 0.00 0.00 0.00 95 1010.4
20260505013603 8 5 0.0 1.6 0.00 0.00 0.00 95 1010.5
20260505013504 8 5 0.0 1.6 0.00 0.00 0.00 95 1010.6
20260505013403 8 5 0.0 1.6 0.00 0.00 0.00 95 1010.5
20260505013303 8 5 0.0 1.6 0.00 0.00 0.00 95 1010.5
20260505013204 8 5 0.0 1.6 0.00 0.00 0.00 95 1010.5
20260505013104 8 5 0.0 1.6 0.00 0.00 0.00 95 1010.4
20260505012904 8 0 0.0 1.6 0.00 0.00 0.00 95 1010.6
20260505012804 8 0 0.0 1.6 0.00 0.00 0.00 95 1010.5
20260505012504 8 5 0.0 1.6 0.00 0.00 0.00 95 1010.5
20260505012404 8 5 0.0 1.6 0.00 0.00 0.00 95 1010.4
20260505012304 8 5 0.0 1.6 0.00 0.00 0.00 95 1010.6
20260505012204 8 5 0.0 1.6 0.00 0.00 0.00 95 1010.5
20260505012103 8 5 0.0 1.6 0.00 0.00 0.00 95 1010.6
20260505012003 8 5 0.0 1.6 0.00 0.00 0.00 95 1010.5
20260505011904 8 4 0.0 1.6 0.00 0.00 0.00 95 1010.6
20260505011804 8 4 0.0 1.6 0.00 0.00 0.00 95 1010.5
20260505011603 8 4 0.0 1.6 0.00 0.00 0.00 94 1010.8
20260505011504 8 4 0.0 1.6 0.00 0.00 0.00 94 1010.7
20260505011403 8 4 0.0 1.6 0.00 0.00 0.00 94 1010.7
20260505011204 8 4 0.0 1.6 0.00 0.00 0.00 94 1010.5
20260505011104 8 4 0.0 1.6 0.00 0.00 0.00 94 1010.6
20260505011003 8 4 0.0 1.6 0.00 0.00 0.00 94 1010.7
20260505010903 8 4 0.0 1.6 0.00 0.00 0.00 94 1010.6
20260505010803 8 4 0.0 1.6 0.00 0.00 0.00 94 1010.5
20260505010704 8 4 0.0 1.6 0.00 0.00 0.00 94 1010.7
20260505010604 8 4 0.0 1.6 0.00 0.00 0.00 93 1010.6
20260505010504 8 4 0.0 1.6 0.00 0.00 0.00 93 1010.6
20260505010403 8 4 0.0 1.6 0.00 0.00 0.00 93 1010.8
20260505010304 8 4 0.0 1.6 0.00 0.00 0.00 93 1010.6
20260505010203 8 4 0.0 1.6 0.00 0.00 0.00 93 1010.7
20260505010104 8 4 0.0 1.6 0.00 0.00 0.00 93 1010.9
20260505010005 8 4 0.0 1.6 0.00 0.00 0.00 93 1010.8
20260505005904 8 4 0.0 1.6 0.00 0.00 0.00 93 1010.8
20260505005803 8 4 0.0 1.6 0.00 0.00 0.00 92 1010.8
20260505005604 8 4 0.0 1.6 0.00 0.00 0.00 93 1010.8
20260505005504 8 4 0.0 1.6 0.00 0.00 0.00 93 1010.8
20260505005403 9 0 0.0 1.6 0.00 0.00 0.00 93 1010.7
20260505005320 9 0 0.0 1.6 0.00 0.00 0.00 93 1010.8
20260505005304 9 4 0.0 1.6 0.00 0.00 0.00 93 1010.8
20260505005203 9 4 0.0 1.6 0.00 0.00 0.00 93 1010.7
20260505005005 9 4 0.0 3.2 0.00 0.00 0.00 92 1010.6
20260505004904 9 4 0.0 3.2 0.00 0.00 0.00 93 1010.7
20260505004803 9 4 0.0 3.2 0.00 0.00 0.00 93 1010.4
20260505004705 9 4 0.0 3.2 0.00 0.00 0.00 93 1010.6
20260505004604 9 4 0.0 3.2 0.00 0.00 0.00 93 1010.4
20260505004526 9 4 0.0 3.2 0.00 0.00 0.00 93 1010.5
20260505004404 9 4 0.0 3.2 0.00 0.00 0.00 93 1010.8
20260505004304 9 4 0.0 3.2 0.00 0.00 0.00 93 1010.7
20260505004203 9 4 0.0 3.2 0.00 0.00 0.00 93 1010.6
20260505004119 9 4 0.0 3.2 0.00 0.00 0.00 93 1010.5
20260505003803 9 4 0.0 3.2 0.00 0.00 0.00 92 1010.8
20260505003718 9 4 0.0 1.6 0.00 0.00 0.00 92 1010.5
20260505003704 9 4 0.0 1.6 0.00 0.00 0.00 93 1010.5
20260505003604 9 0 0.0 0.0 0.00 0.00 0.00 92 1010.6
20260505003403 9 0 0.0 0.0 0.00 0.00 0.00 92 1010.5
20260505003303 9 0 0.0 0.0 0.00 0.00 0.00 92 1010.6
20260505003104 9 0 0.0 0.0 0.00 0.00 0.00 92 1010.6
20260505003004 9 0 0.0 0.0 0.00 0.00 0.00 92 1010.7
20260505002903 10 0 0.0 0.0 0.00 0.00 0.00 92 1010.5
20260505002804 10 0 0.0 0.0 0.00 0.00 0.00 92 1010.5
20260505002703 10 0 0.0 0.0 0.00 0.00 0.00 92 1010.6
20260505002604 10 0 0.0 0.0 0.00 0.00 0.00 92 1010.5
20260505002403 10 0 0.0 0.0 0.00 0.00 0.00 91 1010.4
20260505002304 10 0 0.0 0.0 0.00 0.00 0.00 91 1010.4
20260505002203 10 0 0.0 0.0 0.00 0.00 0.00 91 1010.5
20260505002103 10 0 0.0 0.0 0.00 0.00 0.00 90 1010.6
20260505002004 10 0 0.0 0.0 0.00 0.00 0.00 90 1010.5
20260505001903 10 0 0.0 0.0 0.00 0.00 0.00 90 1010.5
20260505001803 10 0 0.0 0.0 0.00 0.00 0.00 90 1010.6
20260505001704 10 0 0.0 0.0 0.00 0.00 0.00 90 1010.4
20260505001604 10 0 0.0 0.0 0.00 0.00 0.00 90 1010.4
20260505001503 10 0 0.0 0.0 0.00 0.00 0.00 90 1010.4
20260505001404 10 0 0.0 0.0 0.00 0.00 0.00 90 1010.4
20260505001304 10 0 0.0 0.0 0.00 0.00 0.00 90 1010.4
20260505001203 10 0 0.0 0.0 0.00 0.00 0.00 90 1010.5
20260505001104 10 0 0.0 0.0 0.00 0.00 0.00 90 1010.5
20260505001003 10 0 0.0 0.0 0.00 0.00 0.00 90 1010.4
20260505000903 10 0 0.0 0.0 0.00 0.00 0.00 90 1010.5
20260505000803 10 0 0.0 0.0 0.00 0.00 0.00 89 1010.5
20260505000703 10 0 0.0 0.0 0.00 0.00 0.00 89 1010.7
20260505000603 10 0 0.0 0.0 0.00 0.00 0.00 89 1010.6
20260505000503 10 0 0.0 0.0 0.00 0.00 0.00 89 1010.7
20260505000405 10 0 0.0 0.0 0.00 0.00 0.00 88 1010.5
20260505000303 10 0 0.0 0.0 0.00 0.00 0.00 88 1010.5
20260505000204 10 0 0.0 0.0 0.00 0.00 0.00 88 1010.6
20260505000104 10 0 0.0 0.0 0.00 0.00 0.00 87 1010.5
20260505000004 10 0 0.0 0.0 0.00 0.00 0.00 87 1010.8
20260504235916 10 0 0.0 0.0 0.00 0.00 0.00 87 1010.5
20260504235822 10 0 0.0 0.0 0.00 0.00 0.00 87 1010.6
20260504235804 10 0 0.0 1.6 0.00 0.00 0.00 87 1010.6
20260504235504 10 4 0.0 1.6 0.00 0.00 0.00 88 1010.7
20260504235403 10 4 0.0 1.6 0.00 0.00 0.00 88 1010.7
20260504235304 10 4 0.0 1.6 0.00 0.00 0.00 88 1010.7
20260504235203 10 4 0.0 1.6 0.00 0.00 0.00 88 1010.5
20260504235103 10 18 0.0 4.8 0.00 0.00 0.00 88 1010.6
20260504235003 10 48 0.0 4.8 0.00 0.00 0.00 88 1010.6
20260504234903 10 55 0.0 4.8 0.00 0.00 0.00 88 1010.6
20260504234804 10 60 0.0 4.8 0.00 0.00 0.00 88 1010.6
20260504234604 11 74 1.6 4.8 0.00 0.00 0.00 88 1010.7
20260504234504 11 82 1.6 4.8 0.00 0.00 0.00 88 1010.6
20260504234404 11 87 0.0 4.8 0.00 0.00 0.00 88 1010.7
20260504234309 11 90 0.0 4.8 0.00 0.00 0.00 88 1010.6
20260504234204 11 91 0.0 4.8 0.00 0.00 0.00 88 1010.7
20260504234105 11 91 0.0 4.8 0.00 0.00 0.00 89 1010.7
20260504234004 11 91 1.6 4.8 0.00 0.00 0.00 89 1010.7
20260504233904 11 98 0.0 3.2 0.00 0.00 0.00 89 1010.7
20260504233803 11 105 0.0 3.2 0.00 0.00 0.00 88 1010.5
20260504233703 11 112 0.0 3.2 0.00 0.00 0.00 89 1010.6
20260504233616 11 115 0.0 3.2 0.00 0.00 0.00 89 1010.5
20260504233604 11 116 0.0 3.2 0.00 0.00 0.00 89 1010.5
20260504233504 11 121 0.0 3.2 0.00 0.00 0.00 88 1010.5
20260504233304 11 127 1.6 3.2 0.00 0.00 0.00 88 1010.6
20260504233204 11 128 1.6 3.2 0.00 0.00 0.00 88 1010.5
20260504233105 11 130 1.6 3.2 0.00 0.00 0.00 88 1010.6
20260504232904 11 127 1.6 3.2 0.00 0.00 0.00 87 1010.6
20260504232821 11 127 1.6 3.2 0.00 0.00 0.00 88 1010.6
20260504232804 11 126 1.6 3.2 0.00 0.00 0.00 88 1010.6
20260504232703 11 126 1.6 3.2 0.00 0.00 0.00 87 1010.5
20260504232516 11 122 1.6 3.2 0.00 0.00 0.00 85 1010.7
20260504232504 11 121 1.6 3.2 0.00 0.00 0.00 85 1010.7
20260504232405 11 119 1.6 3.2 0.00 0.00 0.00 86 1010.5
20260504232203 11 111 1.6 3.2 0.00 0.00 0.00 86 1010.5
20260504232103 11 109 1.6 3.2 0.00 0.00 0.00 84 1010.6
20260504232003 11 106 1.6 3.2 0.00 0.00 0.00 84 1010.6
20260504231904 11 107 1.6 3.2 0.00 0.00 0.00 85 1010.7
20260504231804 11 105 1.6 3.2 0.00 0.00 0.00 85 1010.7
20260504231703 11 102 1.6 3.2 0.00 0.00 0.00 85 1010.7
20260504231603 11 104 1.6 3.2 0.00 0.00 0.00 83 1010.8
20260504231503 11 105 1.6 3.2 0.00 0.00 0.00 84 1010.7
20260504231403 11 104 1.6 3.2 0.00 0.00 0.00 84 1010.7
20260504231303 12 103 1.6 3.2 0.00 0.00 0.00 83 1010.8
20260504231203 12 103 1.6 3.2 0.00 0.00 0.00 84 1010.7
20260504231105 12 101 1.6 3.2 0.00 0.00 0.00 83 1010.9
20260504231003 12 100 0.0 3.2 0.00 0.00 0.00 83 1010.8
20260504230904 12 100 0.0 3.2 0.00 0.00 0.00 83 1010.8
20260504230804 12 98 0.0 3.2 0.00 0.00 0.00 82 1010.9
20260504230703 12 101 0.0 3.2 0.00 0.00 0.00 82 1010.8
20260504230603 12 98 0.0 3.2 0.00 0.00 0.00 83 1010.8
20260504230503 12 61 0.0 3.2 0.00 0.00 0.00 83 1010.7
20260504230403 12 23 0.0 3.2 0.00 0.00 0.00 81 1010.8
20260504230304 12 30 0.0 3.2 0.00 0.00 0.00 81 1010.9
20260504230104 12 43 0.0 4.8 0.00 0.00 0.00 81 1010.8
20260504230003 12 45 0.0 4.8 0.00 0.00 0.00 82 1010.9
20260504225904 12 44 1.6 4.8 0.00 0.00 0.00 82 1010.8
20260504225804 12 45 1.6 4.8 0.00 0.00 0.00 81 1011.0
20260504225704 12 46 1.6 4.8 0.00 0.00 0.00 80 1010.9
20260504225603 13 45 1.6 4.8 0.00 0.00 0.00 80 1010.9
20260504225503 13 50 1.6 4.8 0.00 0.00 0.00 80 1010.9
20260504225403 13 51 1.6 4.8 0.00 0.00 0.00 81 1010.9
20260504225319 13 50 1.6 4.8 0.00 0.00 0.00 80 1010.8
20260504225304 13 49 1.6 4.8 0.00 0.00 0.00 80 1010.8
20260504225203 13 45 1.6 4.8 0.00 0.00 0.00 80 1010.9
20260504225116 13 40 1.6 4.8 0.00 0.00 0.00 80 1010.8
20260504225004 13 39 1.6 4.8 0.00 0.00 0.00 81 1010.8
20260504224804 13 41 1.6 6.4 0.00 0.00 0.00 80 1011.0
20260504224703 13 41 1.6 6.4 0.00 0.00 0.00 80 1010.7
20260504224604 13 39 1.6 6.4 0.00 0.00 0.00 80 1010.7
20260504224504 13 36 1.6 6.4 0.00 0.00 0.00 80 1010.9
20260504224404 13 33 1.6 6.4 0.00 0.00 0.00 80 1010.9
20260504224303 13 33 1.6 6.4 0.00 0.00 0.00 80 1010.9
20260504224203 13 39 1.6 6.4 0.00 0.00 0.00 80 1010.7
20260504224104 13 43 1.6 6.4 0.00 0.00 0.00 80 1010.9
20260504224003 13 44 1.6 9.7 0.00 0.00 0.00 80 1011.0
20260504223903 13 40 1.6 9.7 0.00 0.00 0.00 80 1011.0
20260504223804 13 36 3.2 9.7 0.00 0.00 0.00 80 1010.7
20260504223704 13 33 3.2 9.7 0.00 0.00 0.00 80 1010.9
20260504223604 13 33 3.2 9.7 0.00 0.00 0.00 79 1010.8
20260504223504 13 35 3.2 9.7 0.00 0.00 0.00 79 1010.6
20260504223404 13 34 3.2 9.7 0.00 0.00 0.00 79 1010.9
20260504223218 13 28 3.2 9.7 0.00 0.00 0.00 79 1010.8
20260504223205 13 27 3.2 9.7 0.00 0.00 0.00 79 1010.8
20260504223103 13 25 3.2 9.7 0.00 0.00 0.00 80 1010.9
20260504222905 13 15 3.2 6.4 0.00 0.00 0.00 80 1010.9
20260504222803 13 12 3.2 6.4 0.00 0.00 0.00 79 1010.9
20260504222703 13 14 3.2 6.4 0.00 0.00 0.00 79 1010.9
20260504222604 13 19 1.6 9.7 0.00 0.00 0.00 79 1010.8
20260504222404 13 16 1.6 9.7 0.00 0.00 0.00 79 1010.9
20260504222304 13 18 1.6 9.7 0.00 0.00 0.00 79 1010.8
20260504222220 13 18 1.6 9.7 0.00 0.00 0.00 78 1011.0
20260504222203 13 17 1.6 9.7 0.00 0.00 0.00 78 1011.0
20260504222103 13 14 1.6 9.7 0.00 0.00 0.00 79 1011.0
20260504221920 13 19 1.6 9.7 0.00 0.00 0.00 79 1010.9
20260504221904 13 21 3.2 9.7 0.00 0.00 0.00 79 1010.9
20260504221803 13 24 3.2 9.7 0.00 0.00 0.00 79 1010.8
20260504221603 14 16 3.2 9.7 0.00 0.00 0.00 79 1010.9
20260504221503 14 13 3.2 9.7 0.00 0.00 0.00 79 1011.0
20260504221403 14 14 3.2 6.4 0.00 0.00 0.00 79 1010.8
20260504221319 14 13 3.2 6.4 0.00 0.00 0.00 79 1010.8
20260504221303 14 12 3.2 6.4 0.00 0.00 0.00 79 1010.8
20260504221204 14 14 3.2 6.4 0.00 0.00 0.00 78 1010.8
20260504221003 14 10 3.2 6.4 0.00 0.00 0.00 78 1011.1
20260504220904 14 5 3.2 6.4 0.00 0.00 0.00 79 1011.0
20260504220804 14 5 3.2 6.4 0.00 0.00 0.00 78 1010.9
20260504220705 14 8 3.2 6.4 0.00 0.00 0.00 78 1010.8
20260504220617 14 8 3.2 6.4 0.00 0.00 0.00 79 1010.9
20260504220604 14 7 3.2 6.4 0.00 0.00 0.00 79 1010.9
20260504220508 14 8 3.2 6.4 0.00 0.00 0.00 78 1010.8
20260504220418 14 8 3.2 6.4 0.00 0.00 0.00 78 1010.9
20260504220303 14 6 3.2 6.4 0.00 0.00 0.00 78 1010.9
20260504220003 14 356 3.2 9.7 0.00 0.00 0.00 78 1011.0
20260504215903 14 359 3.2 12.9 0.00 0.00 0.00 78 1010.8
20260504215804 14 358 4.8 12.9 0.00 0.00 0.00 78 1010.7
20260504215705 14 355 4.8 12.9 0.00 0.00 0.00 78 1010.8
20260504215604 14 355 4.8 12.9 0.00 0.00 0.00 78 1011.0
20260504215503 14 359 4.8 12.9 0.00 0.00 0.00 79 1010.8
20260504215403 14 357 4.8 12.9 0.00 0.00 0.00 79 1010.9
20260504215319 14 359 4.8 12.9 0.00 0.00 0.00 79 1010.9
20260504215305 14 1 4.8 12.9 0.00 0.00 0.00 79 1010.9
20260504215218 13 5 4.8 12.9 0.00 0.00 0.00 79 1010.9
20260504215203 13 6 4.8 12.9 0.00 0.00 0.00 79 1010.9
20260504214904 13 13 3.2 12.9 0.00 0.00 0.00 79 1010.9
20260504214804 13 18 3.2 12.9 0.00 0.00 0.00 79 1011.0
20260504214704 13 23 3.2 11.3 0.00 0.00 0.00 80 1010.9
20260504214617 13 21 3.2 11.3 0.00 0.00 0.00 79 1010.9
20260504214604 13 20 3.2 11.3 0.00 0.00 0.00 79 1010.9
20260504214504 13 13 3.2 11.3 0.00 0.00 0.00 79 1010.8
20260504214418 13 14 1.6 11.3 0.00 0.00 0.00 79 1010.8
20260504214303 12 18 1.6 11.3 0.00 0.00 0.00 79 1010.9
20260504214220 12 13 1.6 11.3 0.00 0.00 0.00 79 1010.9
20260504214103 12 8 1.6 11.3 0.00 0.00 0.00 77 1010.8
20260504213903 12 4 3.2 11.3 0.00 0.00 0.00 78 1010.7
20260504213818 12 359 3.2 9.7 0.00 0.00 0.00 77 1010.8
20260504213803 12 356 1.6 9.7 0.00 0.00 0.00 77 1010.8
20260504213703 12 360 3.2 9.7 0.00 0.00 0.00 77 1010.8
20260504213504 12 7 1.6 9.7 0.00 0.00 0.00 78 1010.6
20260504213404 11 6 1.6 6.4 0.00 0.00 0.00 78 1010.7
20260504213319 11 355 1.6 6.4 0.00 0.00 0.00 78 1010.7
20260504213303 11 353 1.6 6.4 0.00 0.00 0.00 78 1010.7
20260504213204 11 346 1.6 6.4 0.00 0.00 0.00 79 1010.6
20260504213018 11 247 1.6 6.4 0.00 0.00 0.00 79 1010.8
20260504213003 11 235 1.6 6.4 0.00 0.00 0.00 79 1010.8
20260504212904 11 212 1.6 3.2 0.00 0.00 0.00 78 1010.7
20260504212703 11 227 1.6 4.8 0.00 0.00 0.00 78 1010.5
20260504212603 11 232 1.6 4.8 0.00 0.00 0.00 79 1010.6
20260504212503 11 238 1.6 4.8 0.00 0.00 0.00 78 1010.6
20260504212403 11 245 1.6 4.8 0.00 0.00 0.00 78 1010.7
20260504212304 11 255 1.6 4.8 0.00 0.00 0.00 78 1010.6
20260504212203 11 260 1.6 4.8 0.00 0.00 0.00 78 1010.6
20260504212104 11 263 1.6 4.8 0.00 0.00 0.00 78 1010.7
20260504212003 11 266 3.2 4.8 0.00 0.00 0.00 79 1010.6
20260504211903 11 266 3.2 4.8 0.00 0.00 0.00 79 1010.5
20260504211703 11 266 3.2 4.8 0.00 0.00 0.00 79 1010.6
20260504211604 11 266 1.6 4.8 0.00 0.00 0.00 79 1010.6
20260504211503 11 264 1.6 4.8 0.00 0.00 0.00 79 1010.5
20260504211404 11 261 1.6 4.8 0.00 0.00 0.00 79 1010.5
20260504211203 11 263 1.6 4.8 0.00 0.00 0.00 79 1010.4
20260504211103 10 269 1.6 4.8 0.00 0.00 0.00 80 1010.5
20260504211003 10 272 1.6 4.8 0.00 0.00 0.00 79 1010.4
20260504210903 10 274 1.6 4.8 0.00 0.00 0.00 79 1010.4
20260504210804 10 272 1.6 4.8 0.00 0.00 0.00 79 1010.4
20260504210703 10 264 1.6 4.8 0.00 0.00 0.00 79 1010.4
20260504210603 10 259 1.6 4.8 0.00 0.00 0.00 79 1010.2
20260504210503 11 254 1.6 4.8 0.00 0.00 0.00 79 1010.4
20260504210404 11 251 1.6 9.7 0.00 0.00 0.00 79 1010.2
20260504210304 11 260 1.6 14.5 0.00 0.00 0.00 79 1010.3
20260504210204 10 269 1.6 14.5 0.00 0.00 0.00 79 1010.4
20260504210104 10 274 1.6 14.5 0.00 0.00 0.00 79 1010.4
20260504210005 11 272 1.6 14.5 0.00 0.00 0.00 79 1010.4
20260504205903 11 273 1.6 14.5 0.00 0.00 0.00 79 1010.4
20260504205703 11 277 1.6 14.5 0.00 0.00 0.00 79 1010.1
20260504205603 11 282 1.6 14.5 0.00 0.00 0.00 79 1010.1
20260504205521 11 286 1.6 14.5 0.00 0.00 0.00 78 1010.2
20260504205503 11 287 1.6 14.5 0.00 0.00 0.00 78 1010.2
20260504205404 11 293 1.6 14.5 0.00 0.00 0.00 78 1010.2
20260504205217 11 310 1.6 14.5 0.00 0.00 0.00 78 1010.2
20260504205204 11 303 1.6 14.5 0.00 0.00 0.00 81 1010.2
20260504205104 11 184 0.0 3.2 0.00 0.00 0.00 81 1010.1
20260504204903 11 169 0.0 1.6 0.00 0.00 0.00 81 1009.9
20260504204803 11 163 0.0 1.6 0.00 0.00 0.00 81 1009.9
20260504204703 11 147 0.0 1.6 0.00 0.00 0.00 80 1009.8
20260504204604 11 141 0.0 1.6 0.00 0.00 0.00 80 1010.0
20260504204503 11 141 0.0 1.6 0.00 0.00 0.00 80 1009.8
20260504204403 11 141 0.0 1.6 0.00 0.00 0.00 80 1009.8
20260504204203 11 141 0.0 3.2 0.00 0.00 0.00 80 1009.7
20260504204104 11 140 0.0 3.2 0.00 0.00 0.00 81 1010.1
20260504204003 11 140 0.0 3.2 0.00 0.00 0.00 81 1009.9
20260504203903 11 140 1.6 3.2 0.00 0.00 0.00 82 1009.9
20260504203803 11 140 1.6 3.2 0.00 0.00 0.00 82 1009.8
20260504203703 11 140 1.6 3.2 0.00 0.00 0.00 82 1009.8
20260504203603 11 140 1.6 3.2 0.00 0.00 0.00 81 1009.8
20260504203503 11 140 1.6 3.2 0.00 0.00 0.00 81 1009.8
20260504203404 11 140 1.6 3.2 0.00 0.00 0.00 81 1009.8
20260504203304 11 140 1.6 3.2 0.00 0.00 0.00 82 1009.8
20260504203203 11 140 1.6 3.2 0.00 0.00 0.00 82 1009.8
20260504203103 11 141 1.6 3.2 0.00 0.00 0.00 82 1009.9
20260504202903 11 141 1.6 3.2 0.00 0.00 0.00 83 1009.8
20260504202803 11 140 1.6 3.2 0.00 0.00 0.00 83 1009.7
20260504202705 11 139 1.6 3.2 0.00 0.00 0.00 82 1009.8
20260504202617 11 139 1.6 3.2 0.00 0.00 0.00 81 1009.7
20260504202304 11 139 1.6 3.2 0.00 0.00 0.00 78 1009.7
20260504202203 11 138 0.0 3.2 0.00 0.00 0.00 79 1009.7
20260504202103 11 137 0.0 3.2 0.00 0.00 0.00 78 1009.7
20260504202003 11 136 0.0 3.2 0.00 0.00 0.00 76 1009.8
20260504201903 11 130 0.0 3.2 0.00 0.00 0.00 76 1009.6
20260504201804 11 0 0.0 1.6 0.00 0.00 0.00 76 1009.8
20260504201703 12 0 0.0 0.0 0.00 0.00 0.00 75 1009.7
20260504201604 12 0 0.0 0.0 0.00 0.00 0.00 76 1009.7
20260504201503 12 0 0.0 0.0 0.00 0.00 0.00 76 1009.9
20260504201404 12 0 0.0 0.0 0.00 0.00 0.00 77 1009.9
20260504201304 12 0 0.0 0.0 0.00 0.00 0.00 77 1009.8
20260504201203 12 0 0.0 0.0 0.00 0.00 0.00 77 1009.8
20260504201003 12 0 0.0 0.0 0.00 0.00 0.00 77 1009.9
20260504200903 12 0 0.0 0.0 0.00 0.00 0.00 77 1009.8
20260504200819 12 0 0.0 0.0 0.00 0.00 0.00 78 1009.8
20260504200704 12 0 0.0 0.0 0.00 0.00 0.00 78 1009.8
20260504200616 12 0 0.0 0.0 0.00 0.00 0.00 77 1009.7
20260504200303 12 0 0.0 0.0 0.00 0.00 0.00 79 1009.7
20260504200103 12 0 0.0 0.0 0.00 0.00 0.00 79 1009.8
20260504200003 12 0 0.0 0.0 0.00 0.00 0.00 79 1009.8
20260504195804 12 0 0.0 1.6 0.00 0.00 0.00 78 1009.7
20260504195704 12 128 0.0 1.6 0.00 0.00 0.00 78 1009.8
20260504195604 12 128 0.0 1.6 0.00 0.00 0.00 78 1009.7
20260504195503 12 128 0.0 1.6 0.00 0.00 0.00 77 1009.7
20260504195403 12 127 0.0 1.6 0.00 0.00 0.00 77 1009.7
20260504195304 12 127 0.0 1.6 0.00 0.00 0.00 76 1009.7
20260504195204 12 128 0.0 1.6 0.00 0.00 0.00 77 1009.7
20260504195104 12 128 0.0 1.6 0.00 0.00 0.00 76 1009.8
20260504195003 12 128 0.0 1.6 0.00 0.00 0.00 76 1009.7
20260504194903 12 127 0.0 1.6 0.00 0.00 0.00 76 1009.8
20260504194819 12 127 0.0 1.6 0.00 0.00 0.00 76 1009.7
20260504194803 13 127 0.0 1.6 0.00 0.00 0.00 76 1009.7
20260504194703 13 127 0.0 1.6 0.00 0.00 0.00 76 1009.6
20260504194519 13 128 0.0 3.2 0.00 0.00 0.00 75 1009.7
20260504194404 13 128 0.0 3.2 0.00 0.00 0.00 75 1009.8
20260504194204 13 130 1.6 3.2 0.00 0.00 0.00 73 1009.8
20260504194103 13 132 1.6 3.2 0.00 0.00 0.00 73 1009.6
20260504194003 13 134 1.6 3.2 0.00 0.00 0.00 73 1009.8
20260504193503 13 136 1.6 3.2 0.00 0.00 0.00 73 1009.7
20260504193403 13 137 1.6 3.2 0.00 0.00 0.00 72 1009.6
20260504193303 13 138 1.6 3.2 0.00 0.00 0.00 72 1009.5
20260504193204 13 138 1.6 3.2 0.00 0.00 0.00 71 1009.7
20260504193003 13 138 1.6 3.2 0.00 0.00 0.00 71 1009.9
20260504192804 13 138 1.6 3.2 0.00 0.00 0.00 71 1009.7
20260504192603 13 133 1.6 3.2 0.00 0.00 0.00 72 1009.8
20260504192519 13 133 1.6 3.2 0.00 0.00 0.00 71 1009.9
20260504192504 13 132 1.6 3.2 0.00 0.00 0.00 71 1009.9
20260504192403 13 131 1.6 3.2 0.00 0.00 0.00 71 1009.8
20260504192204 13 130 1.6 3.2 0.00 0.00 0.00 69 1009.8
20260504192113 13 131 1.6 3.2 0.00 0.00 0.00 68 1009.7
20260504192004 13 134 1.6 3.2 0.00 0.00 0.00 67 1009.7
20260504190404 14 334 1.6 9.7 0.00 0.00 0.00 64 1010.4
20260504190203 14 310 1.6 9.7 0.00 0.00 0.00 63 1010.5
20260504190104 15 255 3.2 9.7 0.00 0.00 0.00 63 1010.4
20260504190004 15 204 3.2 9.7 0.00 0.00 0.00 64 1010.5
20260504185904 15 185 3.2 9.7 0.00 0.00 0.00 63 1010.5
20260504185804 15 176 1.6 6.4 0.00 0.00 0.00 63 1010.1
20260504185703 15 171 1.6 4.8 0.00 0.00 0.00 63 1010.3
20260504185603 15 169 3.2 4.8 0.00 0.00 0.00 63 1010.3
20260504185503 15 168 1.6 4.8 0.00 0.00 0.00 61 1010.3
20260504185419 15 168 3.2 4.8 0.00 0.00 0.00 61 1010.4
20260504185403 15 170 3.2 4.8 0.00 0.00 0.00 61 1010.4
20260504185304 15 172 1.6 4.8 0.00 0.00 0.00 60 1010.2
20260504185119 15 173 1.6 4.8 0.00 0.00 0.00 60 1010.1
20260504185103 15 174 1.6 4.8 0.00 0.00 0.00 60 1010.1
20260504185005 15 176 1.6 4.8 0.00 0.00 0.00 60 1010.2
20260504184819 15 179 1.6 4.8 0.00 0.00 0.00 59 1010.3
20260504184805 15 178 1.6 4.8 0.00 0.00 0.00 59 1010.3
20260504184704 15 180 1.6 4.8 0.00 0.00 0.00 59 1010.2
20260504184620 15 180 1.6 4.8 0.00 0.00 0.00 59 1010.2
20260504184505 15 182 1.6 4.8 0.00 0.00 0.00 59 1010.1
20260504184303 15 181 1.6 6.4 0.00 0.00 0.00 59 1010.2
20260504184205 15 182 3.2 6.4 0.00 0.00 0.00 59 1010.2
20260504184103 15 181 3.2 6.4 0.00 0.00 0.00 59 1010.1
20260504184004 15 179 3.2 6.4 0.00 0.00 0.00 58 1010.2
20260504183903 15 179 3.2 6.4 0.00 0.00 0.00 59 1010.1
20260504183804 15 180 3.2 6.4 0.00 0.00 0.00 58 1010.2
20260504183604 16 180 3.2 6.4 0.00 0.00 0.00 58 1010.2
20260504183504 16 181 3.2 6.4 0.00 0.00 0.00 57 1010.3
20260504183404 16 181 1.6 6.4 0.00 0.00 0.00 57 1010.2
20260504183216 16 180 1.6 4.8 0.00 0.00 0.00 57 1010.2
20260504183204 16 181 1.6 4.8 0.00 0.00 0.00 57 1010.2
20260504183103 16 185 1.6 4.8 0.00 0.00 0.00 57 1010.4
20260504182904 16 189 1.6 3.2 0.00 0.00 0.00 57 1010.1
20260504182803 16 192 1.6 3.2 0.00 0.00 0.00 57 1010.1
20260504182705 16 198 1.6 3.2 0.00 0.00 0.00 57 1010.3
20260504182620 16 200 1.6 3.2 0.00 0.00 0.00 57 1010.0
20260504182603 16 202 0.0 3.2 0.00 0.00 0.00 57 1010.0
20260504182505 16 202 0.0 3.2 0.00 0.00 0.00 56 1010.1
20260504182417 16 210 0.0 3.2 0.00 0.00 0.00 55 1010.3
20260504182304 16 221 0.0 1.6 0.00 0.00 0.00 57 1010.1
20260504182103 16 221 0.0 1.6 0.00 0.00 0.00 57 1010.2
20260504182003 16 0 0.0 1.6 0.00 0.00 0.00 56 1010.0
20260504181903 17 0 0.0 1.6 0.00 0.00 0.00 57 1010.0
20260504181803 17 0 0.0 1.6 0.00 0.00 0.00 57 1010.2
20260504181705 17 0 0.0 1.6 0.00 0.00 0.00 57 1010.1
20260504181604 17 0 0.0 1.6 0.00 0.00 0.00 56 1010.1
20260504181503 17 0 0.0 1.6 0.00 0.00 0.00 56 1010.2
20260504181403 17 221 0.0 1.6 0.00 0.00 0.00 56 1010.0
20260504181204 17 221 0.0 1.6 0.00 0.00 0.00 54 1009.9
20260504181119 17 221 0.0 1.6 0.00 0.00 0.00 54 1010.1
20260504181105 17 221 0.0 1.6 0.00 0.00 0.00 53 1010.1
20260504181004 17 221 0.0 1.6 0.00 0.00 0.00 53 1009.9
20260504180704 18 222 0.0 1.6 0.00 0.00 0.00 53 1010.0
20260504180603 18 222 0.0 1.6 0.00 0.00 0.00 53 1009.8
20260504180505 18 222 0.0 1.6 0.00 0.00 0.00 54 1010.1
20260504180404 18 222 0.0 1.6 0.00 0.00 0.00 53 1009.8
20260504180304 18 221 0.0 1.6 0.00 0.00 0.00 54 1009.8
20260504180206 18 221 0.0 3.2 0.00 0.00 0.00 52 1010.1
20260504180103 18 221 0.0 3.2 0.00 0.00 0.00 51 1009.9
20260504180004 18 221 0.0 3.2 0.00 0.00 0.00 50 1010.0
20260504175803 19 218 1.6 4.8 0.00 0.00 0.00 49 1009.8
20260504175704 19 219 1.6 4.8 0.00 0.00 0.00 49 1009.8
20260504175603 19 218 1.6 4.8 0.00 0.00 0.00 50 1009.9
20260504175505 20 218 1.6 4.8 0.00 0.00 0.00 48 1009.8
20260504175404 20 216 1.6 4.8 0.00 0.00 0.00 48 1009.8
20260504175304 20 213 1.6 4.8 0.00 0.00 0.00 48 1009.7
20260504175204 20 213 1.6 4.8 0.00 0.00 0.00 46 1009.8
20260504175103 20 212 1.6 4.8 0.00 0.00 0.00 47 1009.7
20260504175017 20 213 1.6 4.8 0.00 0.00 0.00 45 1009.7
20260504175003 20 214 1.6 4.8 0.00 0.00 0.00 45 1009.7
20260504174903 20 217 1.6 4.8 0.00 0.00 0.00 45 1009.7
20260504174704 20 218 1.6 4.8 0.00 0.00 0.00 43 1009.6
20260504174619 21 217 1.6 4.8 0.00 0.00 0.00 45 1009.7
20260504174603 21 216 1.6 4.8 0.00 0.00 0.00 45 1009.7
20260504174504 21 220 1.6 4.8 0.00 0.00 0.00 42 1009.6
20260504174319 21 233 1.6 9.7 0.00 0.00 0.00 44 1009.6
20260504174303 21 236 1.6 9.7 0.00 0.00 0.00 44 1009.6
20260504174204 21 235 1.6 9.7 0.00 0.00 0.00 44 1009.5
20260504174004 21 236 1.6 9.7 0.00 0.00 0.00 42 1009.7
20260504173903 21 236 1.6 9.7 0.00 0.00 0.00 42 1009.7
20260504173803 21 233 1.6 9.7 0.00 0.00 0.00 42 1009.6
20260504173705 21 232 3.2 9.7 0.00 0.00 0.00 43 1009.6
20260504173603 22 235 3.2 9.7 0.00 0.00 0.00 41 1009.7
20260504173504 22 234 3.2 9.7 0.00 0.00 0.00 42 1009.6
20260504173419 22 232 3.2 9.7 0.00 0.00 0.00 38 1009.7
20260504173403 22 231 3.2 9.7 0.00 0.00 0.00 38 1009.7
20260504173103 22 228 3.2 9.7 0.00 0.00 0.00 39 1009.6
20260504173003 22 227 3.2 9.7 0.00 0.00 0.00 37 1009.4
20260504172822 22 227 3.2 12.9 0.00 0.00 0.00 38 1009.5
20260504172804 22 228 3.2 12.9 0.00 0.00 0.00 38 1009.5
20260504172704 22 228 3.2 12.9 0.00 0.00 0.00 36 1009.3
20260504172518 23 228 3.2 12.9 0.00 0.00 0.00 36 1009.4
20260504172503 23 229 3.2 12.9 0.00 0.00 0.00 36 1009.4
20260504172404 23 231 3.2 12.9 0.00 0.00 0.00 35 1009.6
20260504172204 23 232 4.8 12.9 0.00 0.00 0.00 35 1009.5
20260504172109 23 233 4.8 12.9 0.00 0.00 0.00 35 1009.5
20260504172004 23 236 4.8 12.9 0.00 0.00 0.00 36 1009.5
20260504171905 23 239 4.8 12.9 0.00 0.00 0.00 34 1009.4
20260504171803 23 239 4.8 12.9 0.00 0.00 0.00 35 1009.4
20260504171704 23 244 4.8 16.1 0.00 0.00 0.00 34 1009.4
20260504171604 23 244 4.8 16.1 0.00 0.00 0.00 33 1009.4
20260504171503 23 246 4.8 16.1 0.00 0.00 0.00 34 1009.4
20260504171403 23 247 4.8 16.1 0.00 0.00 0.00 35 1009.3
20260504171303 23 250 4.8 16.1 0.00 0.00 0.00 32 1009.4
20260504171215 23 250 4.8 16.1 0.00 0.00 0.00 34 1009.5
20260504171103 23 245 4.8 16.1 0.00 0.00 0.00 33 1009.5
20260504170919 23 243 4.8 16.1 0.00 0.00 0.00 34 1009.5
20260504170903 23 242 4.8 16.1 0.00 0.00 0.00 33 1009.5
20260504170804 23 243 4.8 16.1 0.00 0.00 0.00 33 1009.5
20260504170605 24 243 4.8 16.1 0.00 0.00 0.00 33 1009.3
20260504170504 24 237 3.2 11.3 0.00 0.00 0.00 33 1009.3
20260504170403 24 235 4.8 11.3 0.00 0.00 0.00 33 1009.3
20260504170304 24 236 3.2 11.3 0.00 0.00 0.00 33 1009.3
20260504170203 24 238 3.2 11.3 0.00 0.00 0.00 32 1009.2
20260504160403 25 230 9.7 27.4 0.00 0.00 0.00 29 1009.3
20260504160304 25 227 9.7 27.4 0.00 0.00 0.00 29 1009.3
20260504160204 25 223 11.3 27.4 0.00 0.00 0.00 29 1009.4
20260504160103 25 228 11.3 27.4 0.00 0.00 0.00 29 1009.4
20260504141303 26 242 8.0 25.7 0.00 0.00 0.00 28 1009.9
20260504141218 26 244 8.0 25.7 0.00 0.00 0.00 28 1009.7
20260504141205 26 244 9.7 25.7 0.00 0.00 0.00 28 1009.7
20260504141104 26 244 9.7 25.7 0.00 0.00 0.00 28 1009.7
20260504141021 26 242 9.7 25.7 0.00 0.00 0.00 28 1009.9
20260504140903 26 243 11.3 25.7 0.00 0.00 0.00 28 1009.9
20260504140704 26 245 11.3 25.7 0.00 0.00 0.00 27 1009.9
20260504140605 26 246 9.7 25.7 0.00 0.00 0.00 28 1010.0
20260504140503 26 242 11.3 25.7 0.00 0.00 0.00 28 1009.9
20260504140403 26 242 11.3 25.7 0.00 0.00 0.00 27 1010.0
20260504140318 26 243 11.3 25.7 0.00 0.00 0.00 28 1010.0
20260504140305 26 242 9.7 22.5 0.00 0.00 0.00 28 1010.0
20260504140216 26 240 9.7 22.5 0.00 0.00 0.00 27 1009.9
20260504140205 26 240 9.7 22.5 0.00 0.00 0.00 27 1009.9